Location: Columbia, SC
(34.0000°N, 81.0300°W)
Time: 14:23:52
(UTC-04:00)

Tiangong 1 - Visible Passes

Search period start: 21 October 2014 00:00
Search period end: 31 October 2014 00:00
Orbit: 353 x 362 km, 42.8° (Epoch: 21 October)

Date Brightness Start Highest point End Pass type
(mag) Time Alt. Az. Time Alt. Az. Time Alt. Az.
21 Oct 2.6 19:15:29 10° SSW 19:17:50 21° SE 19:19:55 11° E visible
21 Oct 4.1 20:50:56 10° W 20:51:36 15° W 20:51:36 15° W visible
22 Oct 0.8 19:42:23 10° SW 19:45:21 79° SSE 19:46:36 31° ENE visible
23 Oct 2.1 20:10:13 10° W 20:12:59 34° NNW 20:13:05 34° NNW visible
24 Oct 3.9 20:38:29 10° WNW 20:39:22 15° NW 20:39:22 15° NW visible
25 Oct 2.5 19:29:06 10° W 19:31:45 28° NNW 19:33:50 14° NE visible
26 Oct 3.1 19:57:12 10° NW 19:59:17 17° N 19:59:48 17° N visible
27 Oct 3.8 20:25:00 10° NW 20:25:36 12° NNW 20:25:36 12° NNW visible
28 Oct 3.2 19:15:27 10° NW 19:17:26 16° N 19:19:24 10° NE visible
29 Oct 3.1 19:42:54 10° NW 19:44:44 15° N 19:45:17 14° NNE visible
30 Oct 3.3 20:09:39 10° NW 20:10:47 16° NNW 20:10:47 16° NNW visible
